Time,TemperatureF,DewpointF,PressureIn,WindDirection,WindDirectionDegrees,WindSpeedMPH,WindSpeedGustMPH,Humidity,HourlyPrecipIn,Conditions,Clouds,dailyrainin,SolarRadiationWatts/m^2,SoftwareType,DateUTC
2013-09-18 00:01:00,75.3,68.0,30.00,ENE,68,1.0,1.0,78,0.00,,---,0.00,0.00,VWS V14.00,2013-09-18 05:01:00,
2013-09-18 00:06:00,75.1,67.8,30.00,ENE,68,1.0,1.0,78,0.00,,---,0.00,0.00,VWS V14.00,2013-09-18 05:06:00,
2013-09-18 00:11:00,75.0,67.7,30.00,ENE,68,0.0,1.0,78,0.00,,---,0.00,0.00,VWS V14.00,2013-09-18 05:11:00,
2013-09-18 00:16:00,74.9,67.6,30.00,ENE,68,1.0,1.0,78,0.00,,---,0.00,0.00,VWS V14.00,2013-09-18 05:16:00,
2013-09-18 00:21:00,74.8,67.9,30.00,ENE,68,0.0,1.0,79,0.00,,---,0.00,0.00,VWS V14.00,2013-09-18 05:21:00,
2013-09-18 00:26:00,74.7,67.8,30.00,ENE,68,1.0,1.0,79,0.00,,---,0.00,0.00,VWS V14.00,2013-09-18 05:26:00,
2013-09-18 00:31:00,74.7,67.8,30.00,ENE,69,1.0,2.0,79,0.00,,---,0.00,0.00,VWS V14.00,2013-09-18 05:31:00,
2013-09-18 00:36:00,74.6,67.7,30.00,ENE,69,0.0,0.0,79,0.00,,---,0.00,0.00,VWS V14.00,2013-09-18 05:36:00,
2013-09-18 00:41:00,74.6,67.7,30.00,ENE,69,1.0,1.0,79,0.00,,---,0.00,0.00,VWS V14.00,2013-09-18 05:41:00,
2013-09-18 00:46:00,74.6,67.7,30.00,ENE,69,0.0,1.0,79,0.00,,---,0.00,0.00,VWS V14.00,2013-09-18 05:46:00,
2013-09-18 00:51:00,74.7,67.8,30.00,ESE,105,1.0,2.0,79,0.00,,---,0.00,0.00,VWS V14.00,2013-09-18 05:51:00,
2013-09-18 00:56:00,74.6,67.7,30.00,ESE,105,1.0,1.0,79,0.00,,---,0.00,0.00,VWS V14.00,2013-09-18 05:56:00,
2013-09-18 01:01:00,74.6,67.7,30.00,ESE,105,2.0,2.0,79,0.00,,---,0.00,0.00,VWS V14.00,2013-09-18 06:01:00,
2013-09-18 01:06:00,74.4,67.8,30.00,East,101,2.0,2.0,80,0.00,,---,0.00,0.00,VWS V14.00,2013-09-18 06:06:00,
2013-09-18 01:11:00,74.3,68.1,30.00,East,101,0.0,1.0,81,0.00,,---,0.00,0.00,VWS V14.00,2013-09-18 06:11:00,
2013-09-18 01:16:00,74.2,67.6,30.00,East,101,0.0,0.0,80,0.00,,---,0.00,0.00,VWS V14.00,2013-09-18 06:16:00,
2013-09-18 01:21:00,74.1,67.5,30.00,East,101,0.0,0.0,80,0.00,,---,0.00,0.00,VWS V14.00,2013-09-18 06:21:00,
2013-09-18 01:26:00,74.0,67.4,30.00,East,101,0.0,0.0,80,0.00,,---,0.00,0.00,VWS V14.00,2013-09-18 06:26:00,
2013-09-18 01:31:00,73.9,67.7,30.00,East,101,0.0,0.0,81,0.00,,---,0.00,0.00,VWS V14.00,2013-09-18 06:31:00,
2013-09-18 01:36:00,73.8,67.6,30.00,East,101,0.0,0.0,81,0.00,,---,0.00,0.00,VWS V14.00,2013-09-18 06:36:00,
2013-09-18 01:40:00,73.8,67.6,30.00,East,101,0.0,0.0,81,0.00,,---,0.00,0.00,VWS V14.00,2013-09-18 06:40:00,
2013-09-18 01:45:00,73.7,67.2,30.00,East,101,0.0,0.0,80,0.00,,---,0.00,0.00,VWS V14.00,2013-09-18 06:45:00,
2013-09-18 01:50:00,73.7,67.2,30.00,East,101,0.0,0.0,80,0.00,,---,0.00,0.00,VWS V14.00,2013-09-18 06:50:00,
2013-09-18 01:55:00,73.7,67.2,30.00,East,101,0.0,0.0,80,0.00,,---,0.00,0.00,VWS V14.00,2013-09-18 06:55:00,
2013-09-18 02:00:00,73.7,67.2,30.00,East,101,0.0,1.0,80,0.00,,---,0.00,0.00,VWS V14.00,2013-09-18 07:00:00,
2013-09-18 02:05:00,73.8,66.9,30.00,East,101,2.0,2.0,79,0.00,,---,0.00,0.00,VWS V14.00,2013-09-18 07:05:00,
2013-09-18 02:10:00,73.9,67.0,30.00,East,101,1.0,1.0,79,0.00,,---,0.00,0.00,VWS V14.00,2013-09-18 07:10:00,
2013-09-18 02:15:00,74.1,67.2,30.00,East,101,2.0,2.0,79,0.00,,---,0.00,0.00,VWS V14.00,2013-09-18 07:15:00,
2013-09-18 02:20:00,74.1,67.2,30.00,East,101,1.0,1.0,79,0.00,,---,0.00,0.00,VWS V14.00,2013-09-18 07:20:00,
2013-09-18 02:25:00,74.1,66.8,30.00,East,101,1.0,1.0,78,0.00,,---,0.00,0.00,VWS V14.00,2013-09-18 07:25:00,
2013-09-18 02:30:00,74.1,66.8,30.00,East,101,0.0,1.0,78,0.00,,---,0.00,0.00,VWS V14.00,2013-09-18 07:30:00,
2013-09-18 02:35:00,74.0,67.1,30.00,East,101,0.0,1.0,79,0.00,,---,0.00,0.00,VWS V14.00,2013-09-18 07:35:00,
2013-09-18 02:40:00,73.9,66.2,30.00,East,101,1.0,1.0,77,0.00,,---,0.00,0.00,VWS V14.00,2013-09-18 07:40:00,
2013-09-18 02:45:00,73.8,66.2,30.00,East,101,1.0,1.0,77,0.00,,---,0.00,0.00,VWS V14.00,2013-09-18 07:45:00,
2013-09-18 02:50:00,73.7,66.4,30.00,East,101,1.0,1.0,78,0.00,,---,0.00,0.00,VWS V14.00,2013-09-18 07:50:00,
2013-09-18 02:55:00,73.5,66.2,30.00,East,101,2.0,2.0,78,0.00,,---,0.00,0.00,VWS V14.00,2013-09-18 07:55:00,
2013-09-18 03:00:00,73.4,66.1,30.00,East,101,2.0,2.0,78,0.00,,---,0.00,0.00,VWS V14.00,2013-09-18 08:00:00,
2013-09-18 03:05:00,73.4,66.1,30.00,East,101,1.0,1.0,78,0.00,,---,0.00,0.00,VWS V14.00,2013-09-18 08:05:00,
2013-09-18 03:10:00,73.4,66.1,30.00,East,101,1.0,1.0,78,0.00,,---,0.00,0.00,VWS V14.00,2013-09-18 08:10:00,
2013-09-18 03:15:00,73.3,66.0,30.00,East,101,0.0,0.0,78,0.00,,---,0.00,0.00,VWS V14.00,2013-09-18 08:15:00,
2013-09-18 03:20:00,73.3,66.0,30.00,East,101,0.0,0.0,78,0.00,,---,0.00,0.00,VWS V14.00,2013-09-18 08:20:00,
2013-09-18 03:25:00,73.3,66.0,30.00,East,101,0.0,0.0,78,0.00,,---,0.00,0.00,VWS V14.00,2013-09-18 08:25:00,
2013-09-18 03:30:00,73.2,65.9,30.00,East,101,0.0,0.0,78,0.00,,---,0.00,0.00,VWS V14.00,2013-09-18 08:30:00,
2013-09-18 03:35:00,73.1,65.8,30.00,East,101,0.0,0.0,78,0.00,,---,0.00,0.00,VWS V14.00,2013-09-18 08:35:00,
2013-09-18 03:40:00,73.0,65.7,30.00,East,101,0.0,0.0,78,0.00,,---,0.00,0.00,VWS V14.00,2013-09-18 08:40:00,
2013-09-18 03:45:00,72.9,65.7,30.00,East,101,1.0,2.0,78,0.00,,---,0.00,0.00,VWS V14.00,2013-09-18 08:45:00,
2013-09-18 03:50:00,72.6,65.7,30.00,East,101,2.0,3.0,79,0.00,,---,0.00,0.00,VWS V14.00,2013-09-18 08:50:00,
2013-09-18 03:55:00,72.3,65.4,30.00,East,101,1.0,2.0,79,0.00,,---,0.00,0.00,VWS V14.00,2013-09-18 08:55:00,
2013-09-18 04:00:00,72.1,65.6,29.99,East,101,2.0,2.0,80,0.00,,---,0.00,0.00,VWS V14.00,2013-09-18 09:00:00,
2013-09-18 04:05:00,71.7,65.2,29.99,East,101,2.0,2.0,80,0.00,,---,0.00,0.00,VWS V14.00,2013-09-18 09:05:00,
2013-09-18 04:10:00,71.6,65.5,29.99,East,101,1.0,1.0,81,0.00,,---,0.00,0.00,VWS V14.00,2013-09-18 09:10:00,
2013-09-18 04:15:00,71.5,65.4,29.99,East,101,1.0,2.0,81,0.00,,---,0.00,0.00,VWS V14.00,2013-09-18 09:15:00,
2013-09-18 04:20:00,71.6,65.5,29.99,East,101,1.0,1.0,81,0.00,,---,0.00,0.00,VWS V14.00,2013-09-18 09:20:00,
2013-09-18 04:25:00,71.6,65.5,29.99,East,101,1.0,2.0,81,0.00,,---,0.00,0.00,VWS V14.00,2013-09-18 09:25:00,
2013-09-18 04:30:00,71.6,65.5,29.99,ESE,102,1.0,2.0,81,0.00,,---,0.00,0.00,VWS V14.00,2013-09-18 09:30:00,
2013-09-18 04:35:00,71.7,65.6,30.00,SE,128,2.0,3.0,81,0.00,,---,0.00,0.00,VWS V14.00,2013-09-18 09:35:00,
2013-09-18 04:40:00,71.8,65.7,30.00,SE,140,3.0,3.0,81,0.00,,---,0.00,0.00,VWS V14.00,2013-09-18 09:40:00,
2013-09-18 04:45:00,71.9,65.8,30.00,SE,140,2.0,2.0,81,0.00,,---,0.00,0.00,VWS V14.00,2013-09-18 09:45:00,
2013-09-18 04:50:00,71.9,65.4,30.00,SE,140,0.0,1.0,80,0.00,,---,0.00,0.00,VWS V14.00,2013-09-18 09:50:00,
2013-09-18 04:55:00,71.9,65.4,30.00,SE,139,1.0,1.0,80,0.00,,---,0.00,0.00,VWS V14.00,2013-09-18 09:55:00,
2013-09-18 05:00:00,71.9,65.4,30.00,SE,140,1.0,2.0,80,0.00,,---,0.00,0.00,VWS V14.00,2013-09-18 10:00:00,
2013-09-18 05:05:00,71.9,65.4,30.00,SE,139,2.0,2.0,80,0.00,,---,0.00,0.00,VWS V14.00,2013-09-18 10:05:00,
2013-09-18 05:10:00,72.0,65.5,30.00,SE,139,1.0,1.0,80,0.00,,---,0.00,0.00,VWS V14.00,2013-09-18 10:10:00,
2013-09-18 05:15:00,72.0,65.5,29.99,SE,136,1.0,1.0,80,0.00,,---,0.00,0.00,VWS V14.00,2013-09-18 10:15:00,
2013-09-18 05:20:00,71.9,65.4,29.99,SE,136,1.0,2.0,80,0.00,,---,0.00,0.00,VWS V14.00,2013-09-18 10:20:00,
2013-09-18 05:25:00,71.7,65.2,30.00,SE,136,1.0,1.0,80,0.00,,---,0.00,0.00,VWS V14.00,2013-09-18 10:25:00,
2013-09-18 05:30:00,71.6,65.1,30.00,SE,136,1.0,1.0,80,0.00,,---,0.00,0.00,VWS V14.00,2013-09-18 10:30:00,
2013-09-18 05:35:00,71.5,65.0,30.00,SE,136,1.0,1.0,80,0.00,,---,0.00,0.00,VWS V14.00,2013-09-18 10:35:00,
2013-09-18 05:40:00,71.4,65.3,30.00,SE,136,0.0,1.0,81,0.00,,---,0.00,0.00,VWS V14.00,2013-09-18 10:40:00,
2013-09-18 05:45:00,71.4,65.3,30.00,SE,136,0.0,1.0,81,0.00,,---,0.00,0.00,VWS V14.00,2013-09-18 10:45:00,
2013-09-18 05:50:00,71.4,65.3,30.00,SE,136,0.0,0.0,81,0.00,,---,0.00,0.00,VWS V14.00,2013-09-18 10:50:00,
2013-09-18 05:55:00,71.4,65.3,30.00,SE,136,1.0,1.0,81,0.00,,---,0.00,0.00,VWS V14.00,2013-09-18 10:55:00,
2013-09-18 06:00:00,71.4,65.3,30.00,SE,136,0.0,0.0,81,0.00,,---,0.00,0.00,VWS V14.00,2013-09-18 11:00:00,
2013-09-18 06:05:00,71.4,65.3,30.00,SE,136,1.0,1.0,81,0.00,,---,0.00,0.00,VWS V14.00,2013-09-18 11:05:00,
2013-09-18 06:10:00,71.4,65.3,30.01,SE,136,0.0,0.0,81,0.00,,---,0.00,0.00,VWS V14.00,2013-09-18 11:10:00,
2013-09-18 06:15:00,71.3,65.2,30.01,SE,136,0.0,0.0,81,0.00,,---,0.00,0.00,VWS V14.00,2013-09-18 11:15:00,
2013-09-18 06:20:00,71.2,65.1,30.01,SE,136,1.0,2.0,81,0.00,,---,0.00,0.00,VWS V14.00,2013-09-18 11:20:00,
2013-09-18 06:25:00,71.1,65.0,30.01,SE,136,2.0,2.0,81,0.00,,---,0.00,0.00,VWS V14.00,2013-09-18 11:25:00,
2013-09-18 06:30:00,70.8,65.0,30.01,SE,136,1.0,2.0,82,0.00,,---,0.00,0.00,VWS V14.00,2013-09-18 11:30:00,
2013-09-18 06:35:00,70.5,64.8,30.01,SE,136,0.0,1.0,82,0.00,,---,0.00,0.00,VWS V14.00,2013-09-18 11:35:00,
2013-09-18 06:40:00,70.4,65.0,30.01,SE,136,0.0,0.0,83,0.00,,---,0.00,0.00,VWS V14.00,2013-09-18 11:40:00,
2013-09-18 06:45:00,70.2,64.8,30.01,SE,136,2.0,2.0,83,0.00,,---,0.00,0.00,VWS V14.00,2013-09-18 11:45:00,
2013-09-18 06:50:00,69.9,64.5,30.02,SE,136,1.0,1.0,83,0.00,,---,0.00,0.00,VWS V14.00,2013-09-18 11:50:00,
2013-09-18 06:55:00,69.8,64.8,30.02,SE,136,1.0,1.0,84,0.00,,---,0.00,0.00,VWS V14.00,2013-09-18 11:55:00,
2013-09-18 07:00:00,69.8,64.8,30.02,SE,136,0.0,2.0,84,0.00,,---,0.00,5.00,VWS V14.00,2013-09-18 12:00:00,
2013-09-18 07:05:00,69.8,64.8,30.02,SE,136,0.0,0.0,84,0.00,,---,0.00,11.00,VWS V14.00,2013-09-18 12:05:00,
2013-09-18 07:10:00,69.7,64.7,30.02,SE,136,0.0,0.0,84,0.00,,---,0.00,12.00,VWS V14.00,2013-09-18 12:10:00,
2013-09-18 07:15:00,69.8,64.8,30.02,SE,136,1.0,1.0,84,0.00,,---,0.00,12.00,VWS V14.00,2013-09-18 12:15:00,
2013-09-18 07:20:00,69.7,64.7,30.02,SE,136,1.0,1.0,84,0.00,,---,0.00,21.00,VWS V14.00,2013-09-18 12:20:00,
2013-09-18 07:25:00,69.6,64.6,30.02,SE,136,1.0,1.0,84,0.00,,---,0.00,23.00,VWS V14.00,2013-09-18 12:25:00,
2013-09-18 07:30:00,69.6,64.6,30.03,SE,136,1.0,1.0,84,0.00,,---,0.00,28.00,VWS V14.00,2013-09-18 12:30:00,
2013-09-18 07:35:00,69.6,64.6,30.03,SE,136,0.0,0.0,84,0.00,,---,0.00,54.00,VWS V14.00,2013-09-18 12:35:00,
2013-09-18 07:40:00,69.7,65.0,30.03,SE,136,1.0,2.0,85,0.00,,---,0.00,56.00,VWS V14.00,2013-09-18 12:40:00,
2013-09-18 07:45:00,70.0,65.3,30.03,SE,136,1.0,2.0,85,0.00,,---,0.00,51.00,VWS V14.00,2013-09-18 12:45:00,
2013-09-18 07:50:00,70.6,65.9,30.03,SE,136,1.0,1.0,85,0.00,,---,0.00,74.00,VWS V14.00,2013-09-18 12:50:00,
2013-09-18 07:55:00,71.2,66.1,30.03,SE,130,2.0,2.0,84,0.00,,---,0.00,60.00,VWS V14.00,2013-09-18 12:55:00,
2013-09-18 08:00:00,71.6,66.2,30.03,SE,130,1.0,2.0,83,0.00,,---,0.00,70.00,VWS V14.00,2013-09-18 13:00:00,
2013-09-18 08:05:00,72.1,65.9,30.03,ESE,108,3.0,3.0,81,0.00,,---,0.00,100.00,VWS V14.00,2013-09-18 13:05:00,
2013-09-18 08:10:00,72.8,66.3,30.04,ESE,108,2.0,3.0,80,0.00,,---,0.00,111.00,VWS V14.00,2013-09-18 13:10:00,
2013-09-18 08:15:00,73.5,67.0,30.04,ESE,112,4.0,6.0,80,0.00,,---,0.00,186.00,VWS V14.00,2013-09-18 13:15:00,
2013-09-18 08:20:00,74.3,66.6,30.04,ESE,105,2.0,4.0,77,0.00,,---,0.00,200.00,VWS V14.00,2013-09-18 13:20:00,
2013-09-18 08:25:00,75.1,67.4,30.04,ESE,112,3.0,4.0,77,0.00,,---,0.00,218.00,VWS V14.00,2013-09-18 13:25:00,
2013-09-18 08:30:00,75.9,67.8,30.05,ESE,107,3.0,4.0,76,0.00,,---,0.00,236.00,VWS V14.00,2013-09-18 13:30:00,
2013-09-18 08:35:00,76.6,67.7,30.05,East,94,5.0,7.0,74,0.00,,---,0.00,264.00,VWS V14.00,2013-09-18 13:35:00,
2013-09-18 08:40:00,77.2,67.9,30.05,ESE,118,2.0,3.0,73,0.00,,---,0.00,295.00,VWS V14.00,2013-09-18 13:40:00,
2013-09-18 08:45:00,77.8,68.5,30.05,East,83,2.0,5.0,73,0.00,,---,0.00,327.00,VWS V14.00,2013-09-18 13:45:00,
2013-09-18 08:50:00,78.6,68.8,30.05,SE,132,2.0,4.0,72,0.00,,---,0.00,355.00,VWS V14.00,2013-09-18 13:50:00,
2013-09-18 08:55:00,79.3,68.7,30.05,East,94,3.0,4.0,70,0.00,,---,0.00,348.00,VWS V14.00,2013-09-18 13:55:00,
2013-09-18 09:00:00,79.9,68.8,30.05,SE,130,3.0,5.0,69,0.00,,---,0.00,380.00,VWS V14.00,2013-09-18 14:00:00,
2013-09-18 09:05:00,80.5,69.0,30.05,ESE,115,2.0,4.0,68,0.00,,---,0.00,399.00,VWS V14.00,2013-09-18 14:05:00,
2013-09-18 09:10:00,81.1,69.6,30.05,SE,134,5.0,5.0,68,0.00,,---,0.00,429.00,VWS V14.00,2013-09-18 14:10:00,
2013-09-18 09:15:00,81.6,69.6,30.05,SE,137,1.0,3.0,67,0.00,,---,0.00,420.00,VWS V14.00,2013-09-18 14:15:00,
2013-09-18 09:20:00,82.1,70.1,30.05,SE,138,0.0,4.0,67,0.00,,---,0.00,492.00,VWS V14.00,2013-09-18 14:20:00,
2013-09-18 09:25:00,82.8,70.3,30.05,SSE,162,1.0,1.0,66,0.00,,---,0.00,499.00,VWS V14.00,2013-09-18 14:25:00,
2013-09-18 09:30:00,83.6,70.6,30.05,East,101,3.0,7.0,65,0.00,,---,0.00,480.00,VWS V14.00,2013-09-18 14:30:00,
2013-09-18 09:35:00,84.1,70.6,30.05,East,96,6.0,6.0,64,0.00,,---,0.00,454.00,VWS V14.00,2013-09-18 14:35:00,
2013-09-18 09:40:00,84.4,70.9,30.05,East,79,7.0,7.0,64,0.00,,---,0.00,605.00,VWS V14.00,2013-09-18 14:40:00,
2013-09-18 09:45:00,84.5,70.5,30.05,ENE,73,3.0,5.0,63,0.00,,---,0.00,346.00,VWS V14.00,2013-09-18 14:45:00,
2013-09-18 09:50:00,84.7,70.7,30.05,East,99,3.0,5.0,63,0.00,,---,0.00,594.00,VWS V14.00,2013-09-18 14:50:00,
2013-09-18 09:55:00,85.4,71.4,30.05,ESE,117,1.0,3.0,63,0.00,,---,0.00,592.00,VWS V14.00,2013-09-18 14:55:00,
2013-09-18 10:00:00,85.9,70.9,30.05,East,99,2.0,7.0,61,0.00,,---,0.00,487.00,VWS V14.00,2013-09-18 15:00:00,
2013-09-18 10:05:00,86.5,71.0,30.05,SSE,163,3.0,7.0,60,0.00,,---,0.00,619.00,VWS V14.00,2013-09-18 15:05:00,
2013-09-18 10:10:00,87.2,71.1,30.05,East,93,2.0,5.0,59,0.00,,---,0.00,603.00,VWS V14.00,2013-09-18 15:10:00,
2013-09-18 10:15:00,87.7,71.1,30.05,SE,140,4.0,5.0,58,0.00,,---,0.00,608.00,VWS V14.00,2013-09-18 15:15:00,
2013-09-18 10:20:00,88.2,71.1,30.05,ESE,107,3.0,6.0,57,0.00,,---,0.00,613.00,VWS V14.00,2013-09-18 15:20:00,
2013-09-18 10:25:00,88.3,70.6,30.05,SE,134,3.0,6.0,56,0.00,,---,0.00,626.00,VWS V14.00,2013-09-18 15:25:00,
2013-09-18 10:30:00,88.5,70.8,30.05,ESE,105,3.0,3.0,56,0.00,,---,0.00,601.00,VWS V14.00,2013-09-18 15:30:00,
2013-09-18 10:35:00,88.8,71.1,30.05,SE,139,4.0,14.0,56,0.00,,---,0.00,552.00,VWS V14.00,2013-09-18 15:35:00,
2013-09-18 10:40:00,89.2,70.9,30.05,SE,134,4.0,5.0,55,0.00,,---,0.00,603.00,VWS V14.00,2013-09-18 15:40:00,
2013-09-18 10:45:00,89.5,70.7,30.05,SE,126,6.0,10.0,54,0.00,,---,0.00,557.00,VWS V14.00,2013-09-18 15:45:00,
2013-09-18 10:50:00,89.5,70.7,30.05,NNE,17,3.0,3.0,54,0.00,,---,0.00,492.00,VWS V14.00,2013-09-18 15:50:00,
2013-09-18 10:55:00,89.6,70.2,30.05,ESE,108,3.0,5.0,53,0.00,,---,0.00,503.00,VWS V14.00,2013-09-18 15:55:00,
2013-09-18 11:00:00,89.7,69.8,30.05,South,188,4.0,5.0,52,0.00,,---,0.00,476.00,VWS V14.00,2013-09-18 16:00:00,
2013-09-18 11:01:00,89.7,69.8,30.05,SW,223,2.0,4.0,52,0.00,,---,0.00,476.00,VWS V14.00,2013-09-18 16:01:00,
2013-09-18 11:06:00,89.9,69.9,30.04,South,185,3.0,4.0,52,0.00,,---,0.00,666.00,VWS V14.00,2013-09-18 16:06:00,
2013-09-18 11:11:00,90.5,69.3,30.04,ESE,123,3.0,5.0,50,0.00,,---,0.00,707.00,VWS V14.00,2013-09-18 16:11:00,
2013-09-18 11:16:00,90.9,69.1,30.04,ESE,115,2.0,4.0,49,0.00,,---,0.00,701.00,VWS V14.00,2013-09-18 16:16:00,
2013-09-18 11:21:00,91.4,69.0,30.04,ESE,111,9.0,9.0,48,0.00,,---,0.00,782.00,VWS V14.00,2013-09-18 16:21:00,
2013-09-18 11:26:00,91.8,69.3,30.04,SE,144,3.0,3.0,48,0.00,,---,0.00,795.00,VWS V14.00,2013-09-18 16:26:00,
2013-09-18 11:31:00,92.4,70.5,30.04,ENE,78,0.0,2.0,49,0.00,,---,0.00,846.00,VWS V14.00,2013-09-18 16:31:00,
2013-09-18 11:36:00,92.9,68.4,30.04,SW,227,3.0,7.0,45,0.00,,---,0.00,896.00,VWS V14.00,2013-09-18 16:36:00,
2013-09-18 11:41:00,93.3,68.2,30.04,South,188,3.0,5.0,44,0.00,,---,0.00,937.00,VWS V14.00,2013-09-18 16:41:00,
2013-09-18 11:46:00,93.5,67.7,30.04,SSW,194,4.0,5.0,43,0.00,,---,0.00,715.00,VWS V14.00,2013-09-18 16:46:00,
2013-09-18 11:51:00,93.8,67.9,30.04,SE,145,2.0,2.0,43,0.00,,---,0.00,540.00,VWS V14.00,2013-09-18 16:51:00,
2013-09-18 11:56:00,93.8,66.6,30.04,East,88,6.0,7.0,41,0.00,,---,0.00,445.00,VWS V14.00,2013-09-18 16:56:00,
2013-09-18 12:01:00,93.1,68.0,30.03,SE,140,4.0,4.0,44,0.00,,---,0.00,438.00,VWS V14.00,2013-09-18 17:01:00,
2013-09-18 12:06:00,92.9,65.0,30.03,SSE,157,4.0,6.0,40,0.00,,---,0.00,483.00,VWS V14.00,2013-09-18 17:06:00,
2013-09-18 12:11:00,92.9,65.8,30.03,South,175,5.0,5.0,41,0.00,,---,0.00,534.00,VWS V14.00,2013-09-18 17:11:00,
2013-09-18 12:16:00,93.0,65.1,30.03,SSE,149,2.0,3.0,40,0.00,,---,0.00,717.00,VWS V14.00,2013-09-18 17:16:00,
2013-09-18 12:21:00,93.4,64.8,30.03,SE,124,3.0,5.0,39,0.00,,---,0.00,696.00,VWS V14.00,2013-09-18 17:21:00,
2013-09-18 12:26:00,93.4,66.2,30.03,ENE,74,5.0,7.0,41,0.00,,---,0.00,691.00,VWS V14.00,2013-09-18 17:26:00,
2013-09-18 12:31:00,93.5,66.3,30.03,SE,135,5.0,9.0,41,0.00,,---,0.00,947.00,VWS V14.00,2013-09-18 17:31:00,
2013-09-18 12:36:00,94.0,66.7,30.02,SE,144,4.0,4.0,41,0.00,,---,0.00,517.00,VWS V14.00,2013-09-18 17:36:00,
2013-09-18 12:41:00,93.9,65.2,30.02,SE,130,2.0,4.0,39,0.00,,---,0.00,461.00,VWS V14.00,2013-09-18 17:41:00,
2013-09-18 12:46:00,93.8,65.1,30.02,SSW,192,1.0,2.0,39,0.00,,---,0.00,376.00,VWS V14.00,2013-09-18 17:46:00,
2013-09-18 12:51:00,93.6,65.7,30.02,SSE,167,8.0,9.0,40,0.00,,---,0.00,383.00,VWS V14.00,2013-09-18 17:51:00,
2013-09-18 12:56:00,93.5,65.6,30.02,SSE,167,3.0,5.0,40,0.00,,---,0.00,599.00,VWS V14.00,2013-09-18 17:56:00,
2013-09-18 13:01:00,93.8,66.6,30.01,South,184,4.0,8.0,41,0.00,,---,0.00,663.00,VWS V14.00,2013-09-18 18:01:00,
2013-09-18 13:06:00,93.8,66.6,30.01,SE,132,2.0,4.0,41,0.00,,---,0.00,656.00,VWS V14.00,2013-09-18 18:06:00,
2013-09-18 13:11:00,94.2,66.9,30.01,SSE,154,8.0,9.0,41,0.00,,---,0.00,911.00,VWS V14.00,2013-09-18 18:11:00,
2013-09-18 13:16:00,94.6,66.6,30.01,SSW,210,2.0,3.0,40,0.00,,---,0.00,643.00,VWS V14.00,2013-09-18 18:16:00,
2013-09-18 13:21:00,94.8,66.7,30.00,SE,134,6.0,6.0,40,0.00,,---,0.00,506.00,VWS V14.00,2013-09-18 18:21:00,
2013-09-18 13:26:00,94.3,67.0,30.00,NE,42,1.0,3.0,41,0.00,,---,0.00,805.00,VWS V14.00,2013-09-18 18:26:00,
2013-09-18 13:31:00,94.3,67.0,30.00,SSE,161,5.0,7.0,41,0.00,,---,0.00,932.00,VWS V14.00,2013-09-18 18:31:00,
2013-09-18 13:36:00,94.9,67.5,30.00,SE,132,4.0,5.0,41,0.00,,---,0.00,622.00,VWS V14.00,2013-09-18 18:36:00,
2013-09-18 13:41:00,94.5,65.7,30.00,SE,127,5.0,9.0,39,0.00,,---,0.00,302.00,VWS V14.00,2013-09-18 18:41:00,
2013-09-18 13:46:00,93.8,65.8,29.99,SE,137,4.0,7.0,40,0.00,,---,0.00,308.00,VWS V14.00,2013-09-18 18:46:00,
2013-09-18 13:51:00,93.5,65.6,29.99,East,96,3.0,5.0,40,0.00,,---,0.00,455.00,VWS V14.00,2013-09-18 18:51:00,
2013-09-18 13:56:00,93.6,64.9,29.99,ENE,61,8.0,9.0,39,0.00,,---,0.00,902.00,VWS V14.00,2013-09-18 18:56:00,
2013-09-18 14:01:00,93.7,66.5,29.99,ENE,63,2.0,3.0,41,0.00,,---,0.00,366.00,VWS V14.00,2013-09-18 19:01:00,
2013-09-18 14:06:00,94.2,64.0,29.98,SE,125,6.0,10.0,37,0.00,,---,0.00,575.00,VWS V14.00,2013-09-18 19:06:00,
2013-09-18 14:11:00,94.8,62.1,29.98,SE,139,6.0,7.0,34,0.00,,---,0.00,846.00,VWS V14.00,2013-09-18 19:11:00,
2013-09-18 14:16:00,95.0,62.3,29.98,SSE,153,6.0,6.0,34,0.00,,---,0.00,765.00,VWS V14.00,2013-09-18 19:16:00,
2013-09-18 14:21:00,94.9,62.2,29.98,East,92,5.0,7.0,34,0.00,,---,0.00,786.00,VWS V14.00,2013-09-18 19:21:00,
2013-09-18 14:26:00,94.9,59.6,29.98,ESE,102,7.0,8.0,31,0.00,,---,0.00,675.00,VWS V14.00,2013-09-18 19:26:00,
2013-09-18 14:31:00,94.9,59.6,29.98,East,99,5.0,7.0,31,0.00,,---,0.00,840.00,VWS V14.00,2013-09-18 19:31:00,
2013-09-18 14:36:00,95.4,52.9,29.97,ESE,114,4.0,4.0,24,0.00,,---,0.00,840.00,VWS V14.00,2013-09-18 19:36:00,
2013-09-18 14:41:00,95.7,61.2,29.97,East,100,5.0,5.0,32,0.00,,---,0.00,490.00,VWS V14.00,2013-09-18 19:41:00,
2013-09-18 14:46:00,95.6,61.9,29.96,NNE,19,3.0,4.0,33,0.00,,---,0.00,559.00,VWS V14.00,2013-09-18 19:46:00,
2013-09-18 14:51:00,95.7,63.7,29.96,SE,134,3.0,3.0,35,0.00,,---,0.00,650.00,VWS V14.00,2013-09-18 19:51:00,
2013-09-18 14:56:00,95.7,62.0,29.96,ESE,107,5.0,8.0,33,0.00,,---,0.00,687.00,VWS V14.00,2013-09-18 19:56:00,
2013-09-18 15:01:00,95.3,62.5,29.96,SE,134,5.0,7.0,34,0.00,,---,0.00,737.00,VWS V14.00,2013-09-18 20:01:00,
2013-09-18 15:06:00,95.7,62.9,29.96,SE,128,4.0,8.0,34,0.00,,---,0.00,717.00,VWS V14.00,2013-09-18 20:06:00,
2013-09-18 15:11:00,95.5,61.8,29.95,SSE,151,3.0,6.0,33,0.00,,---,0.00,234.00,VWS V14.00,2013-09-18 20:11:00,
2013-09-18 15:16:00,95.7,62.9,29.95,ESE,121,5.0,7.0,34,0.00,,---,0.00,751.00,VWS V14.00,2013-09-18 20:16:00,
2013-09-18 15:21:00,96.3,64.2,29.95,East,88,2.0,3.0,35,0.00,,---,0.00,708.00,VWS V14.00,2013-09-18 20:21:00,
2013-09-18 15:26:00,96.5,63.6,29.95,SSE,168,6.0,6.0,34,0.00,,---,0.00,269.00,VWS V14.00,2013-09-18 20:26:00,
2013-09-18 15:31:00,96.1,65.6,29.95,SSE,160,5.0,11.0,37,0.00,,---,0.00,295.00,VWS V14.00,2013-09-18 20:31:00,
2013-09-18 15:36:00,95.6,64.4,29.95,SSE,157,6.0,8.0,36,0.00,,---,0.00,299.00,VWS V14.00,2013-09-18 20:36:00,
2013-09-18 15:41:00,95.6,64.4,29.95,ESE,111,3.0,7.0,36,0.00,,---,0.00,492.00,VWS V14.00,2013-09-18 20:41:00,
2013-09-18 15:46:00,95.5,65.9,29.95,SSE,150,4.0,6.0,38,0.00,,---,0.00,378.00,VWS V14.00,2013-09-18 20:46:00,
2013-09-18 15:51:00,95.3,65.7,29.94,SSE,153,4.0,7.0,38,0.00,,---,0.00,480.00,VWS V14.00,2013-09-18 20:51:00,
2013-09-18 15:56:00,95.4,65.0,29.94,SSE,148,4.0,5.0,37,0.00,,---,0.00,346.00,VWS V14.00,2013-09-18 20:56:00,
2013-09-18 16:01:00,95.4,65.0,29.95,ESE,112,4.0,4.0,37,0.00,,---,0.00,329.00,VWS V14.00,2013-09-18 21:01:00,
2013-09-18 16:06:00,95.0,63.9,29.94,ESE,103,2.0,3.0,36,0.00,,---,0.00,339.00,VWS V14.00,2013-09-18 21:06:00,
2013-09-18 16:11:00,94.8,64.5,29.94,SSE,150,6.0,7.0,37,0.00,,---,0.00,301.00,VWS V14.00,2013-09-18 21:11:00,
2013-09-18 16:16:00,94.7,63.6,29.94,SSE,148,4.0,5.0,36,0.00,,---,0.00,301.00,VWS V14.00,2013-09-18 21:16:00,
2013-09-18 16:21:00,94.5,63.4,29.94,SSE,161,1.0,5.0,36,0.00,,---,0.00,267.00,VWS V14.00,2013-09-18 21:21:00,
2013-09-18 16:26:00,94.5,63.4,29.94,SE,130,2.0,7.0,36,0.00,,---,0.00,308.00,VWS V14.00,2013-09-18 21:26:00,
2013-09-18 16:31:00,94.6,64.3,29.94,East,94,6.0,7.0,37,0.00,,---,0.00,332.00,VWS V14.00,2013-09-18 21:31:00,
2013-09-18 16:36:00,94.6,64.3,29.94,East,80,3.0,5.0,37,0.00,,---,0.00,308.00,VWS V14.00,2013-09-18 21:36:00,
2013-09-18 16:41:00,94.4,64.9,29.94,East,90,5.0,5.0,38,0.00,,---,0.00,283.00,VWS V14.00,2013-09-18 21:41:00,
2013-09-18 16:46:00,94.0,66.0,29.94,ESE,113,4.0,8.0,40,0.00,,---,0.00,510.00,VWS V14.00,2013-09-18 21:46:00,
2013-09-18 16:51:00,94.2,66.2,29.94,SE,134,6.0,9.0,40,0.00,,---,0.00,462.00,VWS V14.00,2013-09-18 21:51:00,
2013-09-18 16:56:00,94.6,67.3,29.94,ESE,108,9.0,10.0,41,0.00,,---,0.00,167.00,VWS V14.00,2013-09-18 21:56:00,
2013-09-18 17:01:00,94.4,67.1,29.94,SE,129,6.0,11.0,41,0.00,,---,0.00,165.00,VWS V14.00,2013-09-18 22:01:00,
2013-09-18 17:06:00,93.9,67.3,29.93,SE,131,7.0,11.0,42,0.00,,---,0.00,176.00,VWS V14.00,2013-09-18 22:06:00,
2013-09-18 17:11:00,93.7,67.2,29.93,SE,131,8.0,11.0,42,0.00,,---,0.00,283.00,VWS V14.00,2013-09-18 22:11:00,
2013-09-18 17:16:00,93.8,67.9,29.94,SE,136,7.0,12.0,43,0.00,,---,0.00,385.00,VWS V14.00,2013-09-18 22:16:00,
2013-09-18 17:21:00,93.8,67.9,29.93,ESE,106,5.0,9.0,43,0.00,,---,0.00,269.00,VWS V14.00,2013-09-18 22:21:00,
2013-09-18 17:26:00,93.8,67.9,29.93,SE,144,5.0,5.0,43,0.00,,---,0.00,193.00,VWS V14.00,2013-09-18 22:26:00,
2013-09-18 17:31:00,93.6,67.8,29.94,SE,130,6.0,7.0,43,0.00,,---,0.00,192.00,VWS V14.00,2013-09-18 22:31:00,
2013-09-18 17:36:00,93.5,68.3,29.94,ESE,120,4.0,5.0,44,0.00,,---,0.00,193.00,VWS V14.00,2013-09-18 22:36:00,
2013-09-18 17:41:00,93.5,67.0,29.93,SE,125,6.0,9.0,42,0.00,,---,0.00,246.00,VWS V14.00,2013-09-18 22:41:00,
2013-09-18 17:46:00,93.3,67.5,29.93,East,99,5.0,5.0,43,0.00,,---,0.00,174.00,VWS V14.00,2013-09-18 22:46:00,
2013-09-18 17:51:00,93.0,67.2,29.93,ESE,116,7.0,9.0,43,0.00,,---,0.00,121.00,VWS V14.00,2013-09-18 22:51:00,
2013-09-18 17:56:00,92.6,67.5,29.93,SE,128,6.0,8.0,44,0.00,,---,0.00,95.00,VWS V14.00,2013-09-18 22:56:00,
2013-09-18 18:01:00,92.3,67.2,29.93,ESE,119,3.0,8.0,44,0.00,,---,0.00,88.00,VWS V14.00,2013-09-18 23:01:00,
2013-09-18 18:06:00,92.3,67.2,29.94,SE,128,6.0,8.0,44,0.00,,---,0.00,74.00,VWS V14.00,2013-09-18 23:06:00,
2013-09-18 18:11:00,92.1,66.4,29.94,SE,130,6.0,7.0,43,0.00,,---,0.00,67.00,VWS V14.00,2013-09-18 23:11:00,
2013-09-18 18:16:00,91.9,66.9,29.94,SE,135,6.0,6.0,44,0.00,,---,0.00,58.00,VWS V14.00,2013-09-18 23:16:00,
2013-09-18 18:21:00,91.7,67.4,29.94,ESE,121,7.0,9.0,45,0.00,,---,0.00,49.00,VWS V14.00,2013-09-18 23:21:00,
2013-09-18 18:26:00,91.5,67.2,29.94,ESE,121,5.0,8.0,45,0.00,,---,0.00,40.00,VWS V14.00,2013-09-18 23:26:00,
2013-09-18 18:31:00,91.2,67.6,29.94,ESE,105,5.0,8.0,46,0.00,,---,0.00,35.00,VWS V14.00,2013-09-18 23:31:00,
2013-09-18 18:36:00,90.9,67.9,29.94,ESE,113,4.0,5.0,47,0.00,,---,0.00,39.00,VWS V14.00,2013-09-18 23:36:00,
2013-09-18 18:41:00,90.7,67.7,29.94,ESE,119,3.0,5.0,47,0.00,,---,0.00,33.00,VWS V14.00,2013-09-18 23:41:00,
2013-09-18 18:46:00,90.5,67.5,29.94,ESE,123,5.0,5.0,47,0.00,,---,0.00,21.00,VWS V14.00,2013-09-18 23:46:00,
2013-09-18 18:51:00,90.3,68.0,29.94,ESE,105,3.0,4.0,48,0.00,,---,0.00,16.00,VWS V14.00,2013-09-18 23:51:00,
2013-09-18 18:56:00,89.9,68.2,29.94,ESE,118,4.0,4.0,49,0.00,,---,0.00,11.00,VWS V14.00,2013-09-18 23:56:00,
2013-09-18 19:01:00,89.5,67.8,29.95,East,87,5.0,5.0,49,0.00,,---,0.00,5.00,VWS V14.00,2013-09-19 00:01:00,
2013-09-18 19:06:00,89.0,68.0,29.95,East,87,3.0,3.0,50,0.00,,---,0.00,5.00,VWS V14.00,2013-09-19 00:06:00,
2013-09-18 19:12:00,88.5,68.1,29.95,East,101,3.0,3.0,51,0.00,,---,0.00,0.00,VWS V14.00,2013-09-19 00:12:00,
2013-09-18 19:17:00,87.9,68.7,29.95,East,94,2.0,3.0,53,0.00,,---,0.00,0.00,VWS V14.00,2013-09-19 00:17:00,
2013-09-18 19:22:00,87.6,68.4,29.95,East,91,3.0,5.0,53,0.00,,---,0.00,0.00,VWS V14.00,2013-09-19 00:22:00,
2013-09-18 19:27:00,87.5,68.8,29.95,ESE,105,2.0,4.0,54,0.00,,---,0.00,0.00,VWS V14.00,2013-09-19 00:27:00,
2013-09-18 19:32:00,87.4,68.7,29.95,ESE,107,2.0,3.0,54,0.00,,---,0.00,0.00,VWS V14.00,2013-09-19 00:32:00,
2013-09-18 19:37:00,87.2,69.1,29.95,East,93,2.0,2.0,55,0.00,,---,0.00,0.00,VWS V14.00,2013-09-19 00:37:00,
2013-09-18 19:42:00,86.8,68.7,29.95,East,91,1.0,3.0,55,0.00,,---,0.00,0.00,VWS V14.00,2013-09-19 00:42:00,
2013-09-18 19:47:00,86.3,68.8,29.95,East,83,3.0,3.0,56,0.00,,---,0.00,0.00,VWS V14.00,2013-09-19 00:47:00,
2013-09-18 19:52:00,86.0,68.5,29.95,ESE,111,2.0,3.0,56,0.00,,---,0.00,0.00,VWS V14.00,2013-09-19 00:52:00,
2013-09-18 19:57:00,85.8,68.8,29.96,ESE,111,2.0,3.0,57,0.00,,---,0.00,0.00,VWS V14.00,2013-09-19 00:57:00,
2013-09-18 20:02:00,85.7,68.7,29.96,ESE,103,2.0,3.0,57,0.00,,---,0.00,0.00,VWS V14.00,2013-09-19 01:02:00,
2013-09-18 20:07:00,85.6,68.6,29.96,ESE,110,3.0,3.0,57,0.00,,---,0.00,0.00,VWS V14.00,2013-09-19 01:07:00,
2013-09-18 20:12:00,85.7,68.7,29.96,ESE,103,4.0,5.0,57,0.00,,---,0.00,0.00,VWS V14.00,2013-09-19 01:12:00,
2013-09-18 20:17:00,85.7,68.7,29.96,ESE,106,2.0,4.0,57,0.00,,---,0.00,0.00,VWS V14.00,2013-09-19 01:17:00,
2013-09-18 20:22:00,85.6,68.6,29.97,East,96,3.0,5.0,57,0.00,,---,0.00,0.00,VWS V14.00,2013-09-19 01:22:00,
2013-09-18 20:27:00,85.4,68.4,29.97,East,99,5.0,6.0,57,0.00,,---,0.00,0.00,VWS V14.00,2013-09-19 01:27:00,
2013-09-18 20:32:00,85.1,68.7,29.97,East,97,2.0,3.0,58,0.00,,---,0.00,0.00,VWS V14.00,2013-09-19 01:32:00,
2013-09-18 20:37:00,85.0,68.6,29.97,East,99,3.0,6.0,58,0.00,,---,0.00,0.00,VWS V14.00,2013-09-19 01:37:00,
2013-09-18 20:42:00,85.0,68.6,29.97,ESE,102,4.0,5.0,58,0.00,,---,0.00,0.00,VWS V14.00,2013-09-19 01:42:00,
2013-09-18 20:47:00,85.0,68.6,29.97,ESE,117,3.0,4.0,58,0.00,,---,0.00,0.00,VWS V14.00,2013-09-19 01:47:00,
2013-09-18 20:52:00,85.0,69.1,29.97,ESE,104,3.0,7.0,59,0.00,,---,0.00,0.00,VWS V14.00,2013-09-19 01:52:00,
2013-09-18 20:57:00,84.8,68.9,29.98,East,98,2.0,2.0,59,0.00,,---,0.00,0.00,VWS V14.00,2013-09-19 01:57:00,
2013-09-18 21:02:00,84.5,69.1,29.97,East,88,3.0,5.0,60,0.00,,---,0.00,0.00,VWS V14.00,2013-09-19 02:02:00,
2013-09-18 21:07:00,84.1,68.7,29.97,East,101,3.0,3.0,60,0.00,,---,0.00,0.00,VWS V14.00,2013-09-19 02:07:00,
2013-09-18 21:12:00,83.8,68.9,29.97,ESE,109,4.0,4.0,61,0.00,,---,0.00,0.00,VWS V14.00,2013-09-19 02:12:00,
2013-09-18 21:17:00,83.7,68.8,29.97,ESE,103,4.0,6.0,61,0.00,,---,0.00,0.00,VWS V14.00,2013-09-19 02:17:00,
2013-09-18 21:22:00,83.8,68.9,29.97,ESE,108,3.0,5.0,61,0.00,,---,0.00,0.00,VWS V14.00,2013-09-19 02:22:00,
2013-09-18 21:27:00,83.7,69.3,29.97,ESE,106,4.0,7.0,62,0.00,,---,0.00,0.00,VWS V14.00,2013-09-19 02:27:00,
2013-09-18 21:32:00,83.7,69.3,29.98,East,93,5.0,6.0,62,0.00,,---,0.00,0.00,VWS V14.00,2013-09-19 02:32:00,
2013-09-18 21:37:00,83.6,69.2,29.98,East,100,3.0,6.0,62,0.00,,---,0.00,0.00,VWS V14.00,2013-09-19 02:37:00,
2013-09-18 21:42:00,83.5,69.1,29.98,ESE,110,5.0,5.0,62,0.00,,---,0.00,0.00,VWS V14.00,2013-09-19 02:42:00,
2013-09-18 21:47:00,83.6,69.2,29.98,East,101,3.0,3.0,62,0.00,,---,0.00,0.00,VWS V14.00,2013-09-19 02:47:00,
2013-09-18 21:52:00,83.7,69.3,29.98,ESE,105,5.0,9.0,62,0.00,,---,0.00,0.00,VWS V14.00,2013-09-19 02:52:00,
2013-09-18 21:57:00,83.9,69.5,29.98,ESE,118,4.0,8.0,62,0.00,,---,0.00,0.00,VWS V14.00,2013-09-19 02:57:00,
2013-09-18 22:02:00,84.0,69.6,29.99,SE,128,5.0,9.0,62,0.00,,---,0.00,0.00,VWS V14.00,2013-09-19 03:02:00,
2013-09-18 22:07:00,84.0,69.6,29.99,SE,125,5.0,11.0,62,0.00,,---,0.00,0.00,VWS V14.00,2013-09-19 03:07:00,
2013-09-18 22:12:00,83.9,69.5,29.99,SE,134,4.0,7.0,62,0.00,,---,0.00,0.00,VWS V14.00,2013-09-19 03:12:00,
2013-09-18 22:17:00,83.7,69.8,29.99,SE,135,11.0,12.0,63,0.00,,---,0.00,0.00,VWS V14.00,2013-09-19 03:17:00,
2013-09-18 22:22:00,83.6,69.7,29.99,SSE,150,8.0,11.0,63,0.00,,---,0.00,0.00,VWS V14.00,2013-09-19 03:22:00,
2013-09-18 22:27:00,83.6,69.7,29.99,SE,142,8.0,11.0,63,0.00,,---,0.00,0.00,VWS V14.00,2013-09-19 03:27:00,
2013-09-18 22:32:00,83.4,69.9,29.99,SE,142,7.0,8.0,64,0.00,,---,0.00,0.00,VWS V14.00,2013-09-19 03:32:00,
2013-09-18 22:37:00,83.2,69.8,29.99,SSE,148,5.0,9.0,64,0.00,,---,0.00,0.00,VWS V14.00,2013-09-19 03:37:00,
2013-09-18 22:42:00,83.0,70.0,29.99,South,181,5.0,5.0,65,0.00,,---,0.00,0.00,VWS V14.00,2013-09-19 03:42:00,
2013-09-18 22:47:00,82.7,69.8,30.00,SSE,167,4.0,5.0,65,0.00,,---,0.00,0.00,VWS V14.00,2013-09-19 03:47:00,
2013-09-18 22:52:00,82.6,69.7,30.00,SSE,152,5.0,7.0,65,0.00,,---,0.00,0.00,VWS V14.00,2013-09-19 03:52:00,
2013-09-18 22:57:00,82.4,69.9,30.00,SSE,157,5.0,6.0,66,0.00,,---,0.00,0.00,VWS V14.00,2013-09-19 03:57:00,
2013-09-18 23:01:00,82.2,69.7,30.00,SE,134,6.0,6.0,66,0.00,,---,0.00,0.00,VWS V14.00,2013-09-19 04:01:00,
2013-09-18 23:06:00,81.9,69.4,30.00,SE,142,5.0,7.0,66,0.00,,---,0.00,0.00,VWS V14.00,2013-09-19 04:06:00,
2013-09-18 23:08:00,81.9,69.9,30.00,SE,143,6.0,6.0,67,0.00,,---,0.00,0.00,VWS V14.00,2013-09-19 04:08:00,
2013-09-18 23:13:00,81.7,69.7,30.00,SE,136,5.0,7.0,67,0.00,,---,0.00,0.00,VWS V14.00,2013-09-19 04:13:00,
2013-09-18 23:18:00,81.6,69.6,30.00,South,172,4.0,6.0,67,0.00,,---,0.00,0.00,VWS V14.00,2013-09-19 04:18:00,
2013-09-18 23:23:00,81.4,69.4,30.00,SSE,164,4.0,5.0,67,0.00,,---,0.00,0.00,VWS V14.00,2013-09-19 04:23:00,
2013-09-18 23:28:00,81.3,69.7,30.00,SE,130,3.0,4.0,68,0.00,,---,0.00,0.00,VWS V14.00,2013-09-19 04:28:00,
2013-09-18 23:33:00,81.1,69.6,30.00,SSE,164,1.0,5.0,68,0.00,,---,0.00,0.00,VWS V14.00,2013-09-19 04:33:00,
2013-09-18 23:38:00,81.0,69.9,30.00,SSE,161,3.0,3.0,69,0.00,,---,0.00,0.00,VWS V14.00,2013-09-19 04:38:00,
2013-09-18 23:43:00,80.9,69.8,30.00,South,184,3.0,5.0,69,0.00,,---,0.00,0.00,VWS V14.00,2013-09-19 04:43:00,
2013-09-18 23:48:00,80.7,69.6,30.00,SSE,167,3.0,4.0,69,0.00,,---,0.00,0.00,VWS V14.00,2013-09-19 04:48:00,
2013-09-18 23:53:00,80.6,69.9,30.00,SE,138,2.0,3.0,70,0.00,,---,0.00,0.00,VWS V14.00,2013-09-19 04:53:00,
2013-09-18 23:58:00,80.4,69.7,30.00,SE,135,2.0,3.0,70,0.00,,---,0.00,0.00,VWS V14.00,2013-09-19 04:58:00,